"Time","Temp","Dewpoint","Humidity","Pressure","Direction","Speed","Gust","Precip","PrecipRate"
"00:04:56","42.6","40.4","92","30.36","98","0","0","0.00","0.00"
"00:09:57","42.6","40.4","92","30.36","98","0","0","0.00","0.00"
"00:14:58","42.5","40.3","92","30.36","98","0","0","0.00","0.00"
"00:19:59","42.6","40.6","92.7","30.36","98","0","0","0.00","0.00"
"00:24:58","42.7","40.8","93","30.36","98","0","0","0.00","0.00"
"00:29:57","42.7","40.8","93","30.36","98","0","0","0.00","0.00"
"00:34:56","42.7","40.8","93","30.36","98","0","0","0.00","0.00"
"00:39:56","42.7","40.5","92.1","30.36","95","0.7","3.6","0.00","0.00"
"00:44:59","42.6","40.4","92","30.36","95","0.1","1.2","0.00","0.00"
"00:49:58","42.5","40.3","92","30.36","95","0","0","0.00","0.00"
"00:54:57","42.3","40.1","92","30.36","95","0.1","1.2","0.00","0.00"
"00:59:59","42.2","40","92","30.36","95","0","0","0.00","0.00"
"01:04:59","42.1","39.9","92","30.36","95","0","0","0.00","0.00"
"01:09:57","42","39.8","92","30.36","95","0","0","0.00","0.00"
"01:14:58","41.8","39.6","92","30.36","95","0","0","0.00","0.00"
"01:19:57","41.6","39.6","92.5","30.36","95","0","0","0.00","0.00"
"01:24:56","41.6","39.7","93","30.36","95","0","0","0.00","0.00"
"01:29:58","41.6","39.7","93","30.36","95","0","0","0.00","0.00"
"01:34:57","41.4","39.5","93","30.36","95","0","0","0.00","0.00"
"01:39:57","41.2","39.3","93","30.36","95","0","0","0.00","0.00"
"01:44:57","41.1","39.2","93","30.37","95","0","0","0.00","0.00"
"01:49:56","41.1","39.2","93","30.37","95","0","0","0.00","0.00"
"01:54:59","41","39.1","93","30.37","95","0","0","0.00","0.00"
"01:59:57","41","39.1","93","30.37","95","0","0","0.00","0.00"
"02:04:57","41","39.2","93.5","30.37","95","0","0","0.00","0.00"
"02:09:59","41","39.4","94","30.37","95","0","0","0.00","0.00"
"02:14:59","40.9","39.3","94","30.37","95","0","0","0.00","0.00"
"02:19:58","41","39.4","94","30.37","95","0","0","0.00","0.00"
"02:24:57","41","39.4","94","30.37","95","0","0","0.00","0.00"
"02:29:56","40.9","39.3","94","30.37","95","0","0","0.00","0.00"
"02:34:59","41","39.4","94","30.37","95","0.8","2.4","0.00","0.00"
"02:39:59","41","39.4","94","30.37","95","0.6","2.3","0.00","0.00"
"02:44:58","41","39.4","94","30.37","95","0","0","0.00","0.00"
"02:49:57","40.9","39.3","94","30.37","95","0","0","0.00","0.00"
"02:54:56","40.9","39.3","94","30.37","95","0","0","0.00","0.00"
"02:59:59","40.8","39.2","94","30.37","95","0","0","0.00","0.00"
"03:04:59","40.8","39.2","94","30.37","95","0","0","0.00","0.00"
"03:09:57","40.7","39.1","94","30.37","95","0","1.2","0.00","0.00"
"03:14:58","40.7","39.1","94","30.37","95","0","0","0.00","0.00"
"03:19:57","40.7","39.1","94","30.37","95","0","0","0.00","0.00"
"03:24:56","40.6","39","94","30.37","95","0","0","0.00","0.00"
"03:29:58","40.5","38.9","94","30.37","95","0","0","0.00","0.00"
"03:34:57","40.5","38.9","94","30.37","95","0","0","0.00","0.00"
"03:39:57","40.5","38.9","94","30.37","95","0","0","0.00","0.00"
"03:44:56","40.5","38.9","94","30.37","95","0","0","0.00","0.00"
"03:49:59","40.5","38.9","94","30.36","95","0","0","0.00","0.00"
"03:54:58","40.5","38.9","94","30.36","95","0","0","0.00","0.00"
"03:59:58","40.4","38.8","94","30.36","95","0","0","0.00","0.00"
"04:04:58","40.3","38.7","94","30.36","95","0","0","0.00","0.00"
"04:09:56","40.2","38.6","94","30.36","95","0","0","0.00","0.00"
"04:14:56","40","38.4","94","30.36","95","0","0","0.00","0.00"
"04:19:58","39.9","38.3","94","30.36","95","0.1","1.2","0.00","0.00"
"04:24:58","39.9","38.3","94","30.36","95","0","0","0.00","0.00"
"04:29:57","40.1","38.7","94.8","30.36","95","0","0","0.00","0.00"
"04:34:59","40","38.6","94.8","30.36","95","0","0","0.00","0.00"
"04:39:58","39.9","38.3","94.1","30.36","95","0.1","1.2","0.00","0.00"
"04:44:58","39.6","38","94","30.37","95","0","0","0.00","0.00"
"04:49:57","39.4","37.8","94","30.37","95","0","0","0.00","0.00"
"04:54:56","39.3","37.7","94","30.37","95","0","0","0.00","0.00"
"04:59:59","39.2","37.6","94","30.37","95","0","0","0.00","0.00"
"05:04:59","39","37.4","94","30.37","95","0","0","0.00","0.00"
"05:09:57","38.7","37.1","94","30.37","95","0","0","0.00","0.00"
"05:14:58","38.4","36.8","94","30.38","95","0","0","0.00","0.00"
"05:19:57","38.1","36.5","94","30.38","95","0","0","0.00","0.00"
"05:24:56","37.9","36.3","94","30.38","95","0","0","0.00","0.00"
"05:29:59","37.7","36.1","94","30.38","95","0","0","0.00","0.00"
"05:34:58","37.6","36","94","30.38","95","0","0","0.00","0.00"
"05:39:58","37.4","35.8","94","30.38","95","0","0","0.00","0.00"
"05:44:58","37.2","35.6","94","30.38","95","0","0","0.00","0.00"
"05:49:57","37.1","35.5","94","30.38","95","0","0","0.00","0.00"
"05:54:56","36.9","35.3","94","30.38","95","0","0","0.00","0.00"
"05:59:58","36.7","35.1","94","30.38","95","0","0","0.00","0.00"
"06:04:58","36.5","34.9","94","30.38","95","0","0","0.00","0.00"
"06:09:57","36.3","34.7","94","30.38","95","0","0","0.00","0.00"
"06:14:58","36.1","34.5","94","30.39","95","0","0","0.00","0.00"
"06:19:56","36.1","34.5","94.1","30.39","95","0","0","0.00","0.00"
"06:24:56","36.1","34.8","95","30.39","95","0","0","0.00","0.00"
"06:29:58","36","34.7","95","30.39","95","0","0","0.00","0.00"
"06:34:57","35.8","34.2","94.1","30.39","95","0","0","0.00","0.00"
"06:39:57","35.4","33.8","94","30.39","95","0","0","0.00","0.00"
"06:44:57","35.2","33.6","94","30.40","95","0","0","0.00","0.00"
"06:49:59","35","33.4","94","30.40","95","0","0","0.00","0.00"
"06:54:59","35","33.4","94","30.40","95","0","0","0.00","0.00"
"06:59:58","34.9","33.6","94.7","30.40","95","0","0","0.00","0.00"
"07:04:57","34.8","33.5","95","30.40","95","0","0","0.00","0.00"
"07:09:59","34.8","33.2","94.2","30.40","95","0","0","0.00","0.00"
"07:14:56","34.8","33.3","94.3","30.41","94","0","0","0.00","0.00"
"07:19:56","34.8","33.5","95","30.41","94","0","0","0.00","0.00"
"07:24:56","34.8","33.5","95","30.41","94","0","0","0.00","0.00"
"07:29:59","34.9","33.6","95","30.41","94","0","0","0.00","0.00"
"07:34:59","35","33.7","95","30.40","94","0","0","0.00","0.00"
"07:39:59","35.1","33.8","95","30.40","94","0","0","0.00","0.00"
"07:44:59","35.1","33.8","95","30.40","94","0","0","0.00","0.00"
"07:49:57","34.9","33.6","95","30.40","94","0","0","0.00","0.00"
"07:54:59","34.7","33.4","95","30.40","94","0","0","0.00","0.00"
"07:59:56","34.7","33.4","95","30.40","94","0","0","0.00","0.00"
"08:04:56","34.8","33.5","95","30.40","94","0","0","0.00","0.00"
"08:09:58","35","33.7","95","30.40","94","0","0","0.00","0.00"
"08:14:58","35.2","33.9","95","30.40","94","0","0","0.00","0.00"
"08:19:56","35.4","34.3","95.7","30.39","94","0.5","2.4","0.00","0.00"
"08:24:57","35.9","34.8","95.9","30.39","94","0.2","2.3","0.00","0.00"
"08:29:59","36.2","35.2","96","30.40","94","0","0","0.00","0.00"
"08:34:58","36.5","35.5","96","30.40","94","0","0","0.00","0.00"
"08:39:57","36.8","35.8","96","30.40","94","0","0","0.00","0.00"
"08:44:59","37.2","36.2","96","30.41","94","0","0","0.00","0.00"
"08:49:58","37.7","36.7","96","30.41","94","0","0","0.00","0.00"
"08:54:57","38.2","37.2","96","30.41","94","0","0","0.00","0.00"
"08:59:59","38.7","37.7","96","30.41","94","0","0","0.00","0.00"
"09:04:58","39.1","38.1","96","30.41","94","0","0","0.00","0.00"
"09:09:57","39.4","38.4","96","30.41","94","0","0","0.00","0.00"
"09:14:57","39.8","38.8","96","30.42","94","0","0","0.00","0.00"
"09:19:59","40.2","39.2","96","30.42","94","0","0","0.00","0.00"
"09:24:57","40.5","39.7","97","30.42","94","0","0","0.00","0.00"
"09:29:59","40.8","39.8","96.2","30.42","94","0","0","0.00","0.00"
"09:34:57","41.1","40.2","96.6","30.42","94","0","0","0.00","0.00"
"09:39:57","41.4","40.4","96.4","30.42","88","0.1","3.6","0.00","0.00"
"09:44:59","41.7","40.8","96.6","30.42","88","0.5","3.5","0.00","0.00"
"09:49:57","42.1","41.2","96.8","30.42","88","0.2","1.2","0.00","0.00"
"09:54:56","42.3","41.5","96.8","30.42","88","0.1","1.2","0.00","0.00"
"09:59:58","42.4","41.6","97","30.42","88","0.4","1.2","0.00","0.00"
"10:04:58","42.5","41.5","96.2","30.42","88","0.2","1.2","0.00","0.00"
"10:09:56","42.7","41.7","96.3","30.42","88","0.2","1.2","0.00","0.00"
"10:14:57","43","42.2","96.7","30.42","88","0.4","2.4","0.00","0.00"
"10:19:58","43.3","42.2","96","30.42","88","0.1","1.2","0.00","0.00"
"10:24:57","43.5","42.4","96","30.42","88","0","1.2","0.00","0.00"
"10:29:56","43.5","42.4","96","30.42","88","0","0","0.00","0.00"
"10:34:58","43.7","42.6","96","30.42","88","0","0","0.00","0.00"
"10:39:57","43.9","42.8","96","30.42","88","0","0","0.00","0.00"
"10:44:59","44.2","43","95.7","30.42","88","0","0","0.00","0.00"
"10:49:57","44.4","43.1","95","30.42","88","0","0","0.00","0.00"
"10:54:59","44.7","43.3","94.6","30.42","82","0.1","2.4","0.00","0.00"
"10:59:57","44.9","43.2","93.6","30.42","82","0.5","2.4","0.00","0.00"
"11:04:56","45.2","43.1","92.3","30.41","82","0.3","2.4","0.00","0.00"
"11:09:58","45.8","43.2","90.8","30.41","82","0.4","2.4","0.00","0.00"
"11:14:59","46.6","43.5","89.2","30.41","82","0.5","2.4","0.00","0.00"
"11:19:57","46.9","43.3","87.5","30.40","82","0.4","2.4","0.00","0.00"
"11:24:56","47.3","43.6","87.1","30.40","84","1.3","3.6","0.00","0.00"
"11:29:58","47.9","43.7","85.5","30.40","62","1.3","2.4","0.00","0.00"
"11:34:57","47.6","43.4","85.1","30.40","53","0.7","2.4","0.00","0.00"
"11:39:56","48.5","43.9","84.1","30.40","37","1.5","3.6","0.00","0.00"
"11:44:59","48.4","43.9","84.2","30.40","48","2.2","4.8","0.00","0.00"
"11:49:57","49.1","44.1","82.8","30.39","50","1.2","3.6","0.00","0.00"
"11:54:56","48.7","43.6","82.6","30.39","51","1.4","3.6","0.00","0.00"
"11:59:58","49.2","44.4","83.4","30.39","51","0.8","3.6","0.00","0.00"
"12:04:57","49.6","44.2","81.5","30.39","51","0.7","2.4","0.00","0.00"
"12:09:59","50.4","44.5","80.1","30.39","49","1.1","3.6","0.00","0.00"
"12:14:59","49.8","43.8","79.8","30.39","50","0.4","2.4","0.00","0.00"
"12:19:57","50.2","44.4","80.4","30.39","49","0.5","2.4","0.00","0.00"
"12:24:56","50.6","44.4","79.4","30.39","49","0.1","2.4","0.00","0.00"
"12:29:58","50.5","44.2","78.9","30.39","75","1.4","4.8","0.00","0.00"
"12:34:57","50.7","44.6","79.4","30.38","56","0.2","1.2","0.00","0.00"
"12:39:56","51.4","45","78.7","30.38","57","1.2","3.6","0.00","0.00"
"12:44:59","51.1","44.2","77.4","30.38","333","1.4","3.6","0.00","0.00"
"12:49:57","50.8","44.2","78","30.38","272","2","6","0.00","0.00"
"12:54:59","50.9","43.5","75.7","30.38","163","2","4.8","0.00","0.00"
"12:59:58","50.8","43.4","75.8","30.38","160","1.6","6","0.00","0.00"
"13:04:57","50.8","43.6","76.2","30.37","164","1.9","4.8","0.00","0.00"
"13:09:59","50.7","43.5","76.4","30.37","167","1.3","3.6","0.00","0.00"
"13:14:58","50.9","43.7","76","30.37","167","0.6","2.4","0.00","0.00"
"13:19:56","51.7","43.9","74.7","30.36","133","1.4","4.8","0.00","0.00"
"13:24:59","51.7","43.7","73.9","30.36","125","0.9","3.6","0.00","0.00"
"13:29:57","52","43.6","72.9","30.36","114","2.3","6","0.00","0.00"
"13:34:56","52.4","43.6","72","30.36","102","1.9","3.6","0.00","0.00"
"13:39:59","53","44.1","71.7","30.36","102","0.8","3.6","0.00","0.00"
"13:44:57","53.6","43.7","69.1","30.36","103","1.6","4.8","0.00","0.00"
"13:49:56","54.2","43.8","68","30.36","159","2.7","6","0.00","0.00"
"13:54:59","54.3","43.7","67.2","30.36","139","2","4.8","0.00","0.00"
"13:59:57","55","43.8","66.1","30.36","130","1.8","6","0.00","0.00"
"14:04:58","54.6","43.8","66.7","30.35","121","0.6","5.8","0.00","0.00"
"14:09:56","55.1","43.8","65.7","30.35","121","0.7","2.4","0.00","0.00"
"14:14:56","55.8","44.2","64.9","30.35","147","2","4.8","0.00","0.00"
"14:19:59","55.7","43.9","64.5","30.34","165","1.6","4.6","0.00","0.00"
"14:24:58","55.2","43.1","63.8","30.34","141","1.8","6","0.00","0.00"
"14:29:56","54.6","43.2","65.3","30.34","115","2","4.8","0.00","0.00"
"14:34:59","55.1","44","66.2","30.34","107","0.5","2.4","0.00","0.00"
"14:39:59","55.9","44","64.3","30.34","107","0.7","2.4","0.00","0.00"
"14:44:57","55.6","43.4","63.6","30.34","112","1.7","4.8","0.00","0.00"
"14:49:59","55.1","43.2","64.2","30.34","113","1.6","3.6","0.00","0.00"
"14:54:58","54.8","42.8","63.8","30.34","114","2.1","4.8","0.00","0.00"
"14:59:56","55","42.8","63.5","30.34","115","1.4","3.6","0.00","0.00"
"15:04:56","55.6","43","62.6","30.34","115","1.3","3.6","0.00","0.00"
"15:09:59","55.6","42.9","62.3","30.34","115","2.2","4.8","0.00","0.00"
"15:14:59","55.2","42.8","62.8","30.34","126","2.5","3.6","0.00","0.00"
"15:19:56","55.1","42.9","63.5","30.34","129","1.5","3.6","0.00","0.00"
"15:24:59","54.9","42.8","63.8","30.34","129","0.5","3.5","0.00","0.00"
"15:29:57","54.9","42.9","64","30.34","129","0.3","2.3","0.00","0.00"
"15:34:59","54.9","42.9","64","30.34","135","0.7","2.4","0.00","0.00"
"15:39:58","54.6","42","62.5","30.34","138","1.1","3.6","0.00","0.00"
"15:44:57","54.4","42.1","63","30.34","138","0.1","2.3","0.00","0.00"
"15:49:58","54.2","41.8","62.7","30.34","138","0","0","0.00","0.00"
"15:54:57","54","41.8","63.2","30.34","138","0","0","0.00","0.00"
"15:59:59","53.6","41.9","64.4","30.35","138","0.2","2.4","0.00","0.00"
"16:04:59","53.1","41.6","64.8","30.35","138","1","2.4","0.00","0.00"
"16:09:57","52.7","41.3","65","30.35","138","0","1.2","0.00","0.00"
"16:14:56","52.4","41.1","65.2","30.36","138","0","0","0.00","0.00"
"16:19:58","52.1","41.2","66.2","30.36","138","0","0","0.00","0.00"
"16:24:56","51.7","41.1","67","30.36","138","0","0","0.00","0.00"
"16:29:59","51.4","40.9","67.1","30.36","138","0","0","0.00","0.00"
"16:34:58","51.1","40.8","67.8","30.36","138","0","0","0.00","0.00"
"16:39:57","50.7","40.8","68.9","30.36","138","0","0","0.00","0.00"
"16:44:56","50.2","40.6","69.5","30.36","138","0","0","0.00","0.00"
"16:49:59","49.7","40.5","70.3","30.36","138","0","0","0.00","0.00"
"16:54:58","49.2","40.4","71.5","30.36","138","0","0","0.00","0.00"
"16:59:56","48.7","40.2","72.3","30.36","138","0","0","0.00","0.00"
"17:04:56","48.2","40","73.2","30.36","138","0","0","0.00","0.00"
"17:09:58","47.6","39.9","74.4","30.36","138","0","0","0.00","0.00"
"17:14:59","47.1","39.8","75.6","30.36","138","0","0","0.00","0.00"
"17:19:58","46.7","39.8","76.7","30.36","138","0","0","0.00","0.00"
"17:24:58","46.4","39.7","77.3","30.36","138","0","0","0.00","0.00"
"17:29:57","46.1","39.6","78.1","30.36","138","0","0","0.00","0.00"
"17:34:57","45.8","39.7","79","30.35","138","0","0","0.00","0.00"
"17:39:58","45.5","39.5","79.2","30.35","138","0","0","0.00","0.00"
"17:44:58","45.1","39","79","30.35","138","0","0","0.00","0.00"
"17:49:57","44.6","38.8","79.9","30.35","138","0","0","0.00","0.00"
"17:54:58","44.3","38.8","81","30.35","138","0","0","0.00","0.00"
"17:59:57","43.9","38.6","81.5","30.35","138","0","0","0.00","0.00"
"18:04:57","43.5","38.4","82","30.35","138","0","0","0.00","0.00"
"18:09:59","43.1","38.1","82.3","30.35","138","0","0","0.00","0.00"
"18:14:56","42.8","38","83","30.36","138","0","0","0.00","0.00"
"18:19:59","42.5","38","83.9","30.36","138","0","0","0.00","0.00"
"18:24:59","42.4","38","84.5","30.36","138","0","0","0.00","0.00"
"18:29:59","42.2","38","85.2","30.36","138","0","0","0.00","0.00"
"18:34:59","42.1","38.2","86","30.35","138","0","0","0.00","0.00"
"18:39:59","41.8","37.8","85.5","30.35","138","0","0","0.00","0.00"
"18:44:58","41.5","37.4","85.4","30.36","138","0","0","0.00","0.00"
"18:49:57","41.2","37.3","86","30.36","138","0","0","0.00","0.00"
"18:54:56","40.9","37.2","86.6","30.36","138","0","0","0.00","0.00"
"18:59:59","40.8","37.2","87","30.36","138","0","0","0.00","0.00"
"19:04:59","40.5","37","87.3","30.36","138","0","0","0.00","0.00"
"19:09:57","40.3","37","87.9","30.36","138","0","0","0.00","0.00"
"19:14:58","40.1","36.8","88","30.36","138","0","0","0.00","0.00"
"19:19:57","40","36.7","88","30.36","138","0","0","0.00","0.00"
"19:24:57","39.8","36.6","88.4","30.36","138","0","0","0.00","0.00"
"19:29:56","39.7","36.7","89","30.36","138","0","0","0.00","0.00"
"19:34:59","39.7","36.7","89","30.35","138","0","0","0.00","0.00"
"19:39:56","39.5","36.5","89","30.35","138","0","0","0.00","0.00"
"19:44:59","39.2","36.2","89","30.36","138","0","0","0.00","0.00"
"19:49:58","39","36","89","30.36","138","0","0","0.00","0.00"
"19:54:58","39","36.3","89.8","30.36","138","0","0","0.00","0.00"
"19:59:56","39.1","36.4","90","30.36","138","0","0","0.00","0.00"
"20:04:56","39.1","36.4","90","30.35","138","0","0","0.00","0.00"
"20:09:58","39.1","36.4","90","30.35","138","0","0","0.00","0.00"
"20:14:57","38.9","36.2","90","30.35","138","0","0","0.00","0.00"
"20:19:59","38.7","35.8","89.5","30.35","138","0","0","0.00","0.00"
"20:24:57","38.5","35.8","90","30.35","138","0","0","0.00","0.00"
"20:29:56","38.4","35.7","90","30.35","138","0","0","0.00","0.00"
"20:34:56","38.4","35.7","90","30.35","138","0","0","0.00","0.00"
"20:39:56","38.2","35.5","90","30.35","138","0","0","0.00","0.00"
"20:44:56","38.2","35.8","90.9","30.35","138","0","0","0.00","0.00"
"20:49:59","38.2","35.8","91","30.35","138","0","0","0.00","0.00"
"20:54:59","38.1","35.7","91","30.35","138","0","0","0.00","0.00"
"20:59:58","38","35.6","91","30.35","138","0","0","0.00","0.00"
"21:04:58","37.9","35.5","91","30.34","138","0","0","0.00","0.00"
"21:09:56","37.6","35.1","90.5","30.34","138","0","0","0.00","0.00"
"21:14:57","37.5","35.1","91","30.35","138","0","0","0.00","0.00"
"21:19:56","37.4","35","91","30.35","138","0","0","0.00","0.00"
"21:24:56","37.3","34.9","91","30.35","138","0","0","0.00","0.00"
"21:29:59","37.4","35.2","91.6","30.35","138","0","0","0.00","0.00"
"21:34:59","37.6","35.5","92","30.35","138","0","0","0.00","0.00"
"21:39:56","37.8","35.7","92","30.35","138","0","0","0.00","0.00"
"21:44:59","37.8","35.7","92","30.35","138","0","0","0.00","0.00"
"21:49:59","37.8","35.7","92","30.35","138","0","0","0.00","0.00"
"21:54:58","37.8","35.7","92","30.35","138","0","0","0.00","0.00"
"21:59:57","37.9","35.8","92","30.35","138","0","0","0.00","0.00"
"22:04:57","38.2","36.3","92.8","30.35","138","0","0","0.00","0.00"
"22:09:59","38.3","36.4","92.7","30.35","138","0","0","0.00","0.00"
"22:14:56","38.3","36.2","92","30.35","138","0","0","0.00","0.00"
"22:19:59","38.5","36.5","92.4","30.35","138","0","0","0.00","0.00"
"22:24:59","38.7","36.9","93","30.35","138","0","0","0.00","0.00"
"22:29:58","38.9","37","93","30.35","138","0","0","0.00","0.00"
"22:34:57","39.1","37.1","92.8","30.35","138","0","0","0.00","0.00"
"22:39:58","39.1","37","92.2","30.35","138","0","0","0.00","0.00"
"22:44:57","39.1","37","92","30.35","138","0","0","0.00","0.00"
"22:49:56","39","36.9","92","30.35","138","0","0","0.00","0.00"
"22:54:56","39.1","37","92","30.35","138","0","0","0.00","0.00"
"22:59:59","39.3","37.2","92","30.36","138","0","0","0.00","0.00"
"23:04:59","39.4","37.3","92","30.36","138","0","0","0.00","0.00"
"23:09:57","39.5","37.4","92","30.36","138","0","0","0.00","0.00"
"23:14:58","39.5","37.4","92","30.36","138","0","0","0.00","0.00"
"23:19:58","39.5","37.4","92","30.35","138","0","0","0.00","0.00"
"23:24:58","39.6","37.5","92","30.35","138","0","0","0.00","0.00"
"23:29:57","39.7","37.7","92.4","30.35","138","0","0","0.00","0.00"
"23:34:56","39.9","38","93","30.34","138","0","0","0.00","0.00"
"23:39:57","40","37.9","92","30.34","138","0","0","0.00","0.00"
"23:44:57","40","37.9","92","30.34","138","0","0","0.00","0.00"
